Tracking 19832 objects as of 26-Aug-2019
HD Live streaming from Space Station
objects crossing your sky now

COSMOS 2251 DEB

Track COSMOS 2251 DEB now!
10-day predictions


NORAD ID: 33795
Int'l Code: 1993-036AL
Perigee: 628.3 km
Apogee: 737.5 km
Inclination: 74.0 °
Period: 98.3 minutes
Semi major axis: 7053 km
RCS: 0.0825 m2 (small)
Launch date: June 16, 1993
Source: Commonwealth of Independent States (former USSR) (CIS)
Launch site: PLESETSK MISSILE AND SPACE COMPLEX (PKMTR)

Note: This is SATELLITE DEBRIS
aabbcc
Your satellite tracking list
Your tracking list is empty




NASA's NSSDC Master Catalog

Two Line Element Set (TLE):
1 33795U 93036AL  19236.52416948  .00000363  00000-0  70205-4 0  9998
2 33795  74.0442 248.9648 0077409 215.1373 304.0786 14.65407286561025
Source of the keplerian elements: AFSPC